| time (UTC) | temp F | wind direction | speed MPH | gust MPH | rain 1hr in | rain 24hr in | rain mn in | humidity % | barometer mb |
| 20260504081703 | 63 | 200 | 5.0 | 8.0 | 0.00 | 0.00 | 0.00 | 62 | 1008.7 |
| 20260504080703 | 64 | 208 | 3.0 | 12.0 | 0.00 | 0.00 | 0.00 | 61 | 1008.8 |
| 20260504080204 | 64 | 218 | 5.0 | 12.0 | 0.00 | 0.00 | 0.00 | 61 | 1008.9 |
| 20260504070204 | 65 | 187 | 3.0 | 8.0 | 0.00 | 0.00 | 0.00 | 60 | 1009.6 |
| 20260504060204 | 66 | 200 | 6.0 | 12.0 | 0.00 | 0.00 | 0.00 | 58 | 1010.3 |
| 20260504050703 | 66 | 190 | 3.0 | 6.0 | 0.00 | 0.00 | 0.00 | 57 | 1010.5 |
| 20260504050204 | 66 | 188 | 3.0 | 9.0 | 0.00 | 0.00 | 0.00 | 57 | 1010.6 |
| 20260504045704 | 66 | 196 | 3.0 | 7.0 | 0.00 | 0.00 | 0.00 | 57 | 1010.5 |
| 20260504045204 | 66 | 197 | 3.0 | 9.0 | 0.00 | 0.00 | 0.00 | 57 | 1010.5 |
| 20260504044703 | 66 | 193 | 4.0 | 8.0 | 0.00 | 0.00 | 0.00 | 58 | 1010.5 |
| 20260504044204 | 66 | 175 | 5.0 | 10.0 | 0.00 | 0.00 | 0.00 | 58 | 1010.6 |
| 20260504043704 | 66 | 185 | 6.0 | 12.0 | 0.00 | 0.00 | 0.00 | 58 | 1010.6 |
| 20260504043203 | 66 | 184 | 3.0 | 9.0 | 0.00 | 0.00 | 0.00 | 58 | 1010.7 |
| 20260504042704 | 66 | 193 | 4.0 | 9.0 | 0.00 | 0.00 | 0.00 | 59 | 1010.6 |
| 20260504042203 | 66 | 175 | 3.0 | 8.0 | 0.00 | 0.00 | 0.00 | 60 | 1010.7 |
| 20260504041703 | 66 | 192 | 3.0 | 10.0 | 0.00 | 0.00 | 0.00 | 61 | 1010.8 |
| 20260504041204 | 65 | 198 | 3.0 | 10.0 | 0.00 | 0.00 | 0.00 | 61 | 1010.9 |
| 20260504040703 | 65 | 181 | 2.0 | 5.0 | 0.00 | 0.00 | 0.00 | 62 | 1011.0 |
| 20260504040204 | 65 | 183 | 1.0 | 5.0 | 0.00 | 0.00 | 0.00 | 62 | 1010.9 |
| 20260504035704 | 65 | 158 | 1.0 | 3.0 | 0.00 | 0.00 | 0.00 | 63 | 1011.0 |
| 20260504035203 | 65 | 164 | 1.0 | 3.0 | 0.00 | 0.00 | 0.00 | 63 | 1011.0 |
| 20260504034204 | 65 | 145 | 1.0 | 2.0 | 0.00 | 0.00 | 0.00 | 63 | 1011.0 |
| 20260504033704 | 65 | 139 | 0.0 | 1.0 | 0.00 | 0.00 | 0.00 | 62 | 1011.1 |
| 20260504033204 | 66 | 172 | 0.0 | 1.0 | 0.00 | 0.00 | 0.00 | 62 | 1011.1 |
| 20260504032703 | 66 | 143 | 0.0 | 2.0 | 0.00 | 0.00 | 0.00 | 61 | 1011.1 |
| 20260504032204 | 66 | 164 | 0.0 | 2.0 | 0.00 | 0.00 | 0.00 | 61 | 1011.1 |
| 20260504031703 | 66 | 132 | 0.0 | 3.0 | 0.00 | 0.00 | 0.00 | 60 | 1011.1 |
| 20260504031203 | 66 | 155 | 1.0 | 2.0 | 0.00 | 0.00 | 0.00 | 60 | 1011.2 |
| 20260504030704 | 67 | 174 | 0.0 | 2.0 | 0.00 | 0.00 | 0.00 | 59 | 1011.2 |
| 20260504030203 | 67 | 146 | 1.0 | 3.0 | 0.00 | 0.00 | 0.00 | 59 | 1011.2 |
| 20260504025704 | 67 | 147 | 1.0 | 3.0 | 0.00 | 0.00 | 0.00 | 58 | 1011.2 |
| 20260504025203 | 67 | 143 | 1.0 | 3.0 | 0.00 | 0.00 | 0.00 | 58 | 1011.2 |
| 20260504024704 | 67 | 140 | 0.0 | 2.0 | 0.00 | 0.00 | 0.00 | 58 | 1011.2 |
| 20260504024204 | 67 | 132 | 1.0 | 3.0 | 0.00 | 0.00 | 0.00 | 57 | 1011.2 |
| 20260504023703 | 68 | 155 | 1.0 | 2.0 | 0.00 | 0.00 | 0.00 | 57 | 1011.0 |
| 20260504023203 | 68 | 135 | 1.0 | 2.0 | 0.00 | 0.00 | 0.00 | 57 | 1011.1 |
| 20260504022704 | 68 | 146 | 0.0 | 1.0 | 0.00 | 0.00 | 0.00 | 56 | 1011.1 |
| 20260504021704 | 68 | 186 | 1.0 | 2.0 | 0.00 | 0.00 | 0.00 | 55 | 1011.1 |
| 20260504020703 | 69 | 136 | 0.0 | 2.0 | 0.00 | 0.00 | 0.00 | 54 | 1011.1 |
| 20260504020204 | 69 | 126 | 0.0 | 3.0 | 0.00 | 0.00 | 0.00 | 54 | 1011.1 |
| 20260504015704 | 69 | 154 | 1.0 | 2.0 | 0.00 | 0.00 | 0.00 | 53 | 1011.1 |
| 20260504014704 | 69 | 162 | 0.0 | 3.0 | 0.00 | 0.00 | 0.00 | 52 | 1010.9 |
| 20260504014204 | 70 | 183 | 0.0 | 2.0 | 0.00 | 0.00 | 0.00 | 52 | 1010.9 |
| 20260504013703 | 70 | 179 | 1.0 | 3.0 | 0.00 | 0.00 | 0.00 | 51 | 1010.8 |
| 20260504012203 | 71 | 155 | 0.0 | 1.0 | 0.00 | 0.00 | 0.00 | 50 | 1010.8 |
| 20260504011204 | 72 | 168 | 0.0 | 3.0 | 0.00 | 0.00 | 0.00 | 48 | 1010.9 |
| 20260504010703 | 72 | 204 | 1.0 | 3.0 | 0.00 | 0.00 | 0.00 | 48 | 1010.8 |
| 20260504010204 | 73 | 176 | 1.0 | 5.0 | 0.00 | 0.00 | 0.00 | 47 | 1010.8 |
| 20260504005704 | 73 | 183 | 1.0 | 5.0 | 0.00 | 0.00 | 0.00 | 47 | 1010.8 |
| 20260504005204 | 73 | 187 | 2.0 | 5.0 | 0.00 | 0.00 | 0.00 | 46 | 1010.8 |
| 20260504004204 | 74 | 171 | 2.0 | 6.0 | 0.00 | 0.00 | 0.00 | 45 | 1011.0 |
| 20260504003703 | 75 | 192 | 1.0 | 6.0 | 0.00 | 0.00 | 0.00 | 44 | 1010.8 |
| 20260504003203 | 75 | 187 | 2.0 | 6.0 | 0.00 | 0.00 | 0.00 | 44 | 1010.8 |
| 20260504002704 | 76 | 194 | 2.0 | 6.0 | 0.00 | 0.00 | 0.00 | 43 | 1010.9 |
| 20260504002204 | 76 | 188 | 1.0 | 7.0 | 0.00 | 0.00 | 0.00 | 43 | 1011.0 |
| 20260504001704 | 77 | 196 | 2.0 | 6.0 | 0.00 | 0.00 | 0.00 | 41 | 1010.9 |
| 20260504001204 | 77 | 187 | 2.0 | 8.0 | 0.00 | 0.00 | 0.00 | 41 | 1010.9 |
| 20260504000704 | 78 | 193 | 2.0 | 8.0 | 0.00 | 0.00 | 0.00 | 41 | 1010.9 |
| 20260504000204 | 78 | 165 | 3.0 | 9.0 | 0.00 | 0.00 | 0.00 | 41 | 1011.0 |
| 20260503235703 | 77 | 227 | 3.0 | 9.0 | 0.00 | 0.00 | 0.00 | 41 | 1011.0 |
| 20260503235203 | 77 | 188 | 3.0 | 7.0 | 0.00 | 0.00 | 0.00 | 41 | 1011.1 |
| 20260503234704 | 77 | 213 | 5.0 | 7.0 | 0.00 | 0.00 | 0.00 | 41 | 1011.1 |
| 20260503234204 | 77 | 205 | 6.0 | 12.0 | 0.00 | 0.00 | 0.00 | 40 | 1011.2 |
| 20260503233703 | 77 | 208 | 2.0 | 6.0 | 0.00 | 0.00 | 0.00 | 40 | 1011.2 |
| 20260503233203 | 77 | 210 | 3.0 | 8.0 | 0.00 | 0.00 | 0.00 | 40 | 1011.1 |
| 20260503232703 | 78 | 214 | 3.0 | 9.0 | 0.00 | 0.00 | 0.00 | 38 | 1011.2 |
| 20260503232203 | 79 | 229 | 3.0 | 12.0 | 0.00 | 0.00 | 0.00 | 38 | 1011.2 |
| 20260503231703 | 79 | 177 | 3.0 | 12.0 | 0.00 | 0.00 | 0.00 | 37 | 1011.3 |
| 20260503230703 | 80 | 256 | 3.0 | 6.0 | 0.00 | 0.00 | 0.00 | 37 | 1011.3 |
| 20260503230204 | 80 | 218 | 3.0 | 10.0 | 0.00 | 0.00 | 0.00 | 37 | 1011.3 |
| 20260503225704 | 80 | 223 | 2.0 | 8.0 | 0.00 | 0.00 | 0.00 | 37 | 1011.3 |
| 20260503225204 | 80 | 202 | 2.0 | 9.0 | 0.00 | 0.00 | 0.00 | 37 | 1011.4 |
| 20260503224704 | 80 | 245 | 4.0 | 9.0 | 0.00 | 0.00 | 0.00 | 35 | 1011.4 |
| 20260503224204 | 80 | 197 | 3.0 | 6.0 | 0.00 | 0.00 | 0.00 | 37 | 1011.3 |
| 20260503223203 | 80 | 257 | 3.0 | 8.0 | 0.00 | 0.00 | 0.00 | 36 | 1011.6 |
| 20260503222203 | 80 | 224 | 4.0 | 14.0 | 0.00 | 0.00 | 0.00 | 35 | 1011.5 |
| 20260503221704 | 80 | 258 | 4.0 | 10.0 | 0.00 | 0.00 | 0.00 | 35 | 1011.7 |
| 20260503221203 | 80 | 234 | 4.0 | 9.0 | 0.00 | 0.00 | 0.00 | 37 | 1011.7 |
| 20260503220704 | 80 | 266 | 2.0 | 9.0 | 0.00 | 0.00 | 0.00 | 35 | 1011.8 |
| 20260503220204 | 80 | 227 | 5.0 | 13.0 | 0.00 | 0.00 | 0.00 | 36 | 1011.8 |
| 20260503215703 | 80 | 182 | 4.0 | 15.0 | 0.00 | 0.00 | 0.00 | 36 | 1011.8 |
| 20260503215203 | 80 | 181 | 5.0 | 15.0 | 0.00 | 0.00 | 0.00 | 35 | 1011.9 |
| 20260503214704 | 80 | 206 | 4.0 | 13.0 | 0.00 | 0.00 | 0.00 | 35 | 1011.9 |
| 20260503214203 | 80 | 222 | 4.0 | 12.0 | 0.00 | 0.00 | 0.00 | 36 | 1011.9 |
| 20260503213703 | 80 | 234 | 4.0 | 13.0 | 0.00 | 0.00 | 0.00 | 36 | 1012.0 |
| 20260503213204 | 80 | 197 | 6.0 | 13.0 | 0.00 | 0.00 | 0.00 | 36 | 1012.1 |
| 20260503212204 | 80 | 180 | 3.0 | 9.0 | 0.00 | 0.00 | 0.00 | 36 | 1012.3 |
| 20260503211703 | 81 | 194 | 6.0 | 13.0 | 0.00 | 0.00 | 0.00 | 35 | 1012.4 |
| 20260503211204 | 81 | 149 | 1.0 | 6.0 | 0.00 | 0.00 | 0.00 | 37 | 1012.3 |
| 20260503210704 | 80 | 240 | 5.0 | 12.0 | 0.00 | 0.00 | 0.00 | 36 | 1012.6 |
| 20260503205703 | 81 | 232 | 3.0 | 8.0 | 0.00 | 0.00 | 0.00 | 36 | 1012.7 |
| 20260503205204 | 80 | 144 | 5.0 | 9.0 | 0.00 | 0.00 | 0.00 | 36 | 1012.8 |
| 20260503204703 | 80 | 168 | 5.0 | 12.0 | 0.00 | 0.00 | 0.00 | 36 | 1012.9 |
| 20260503204204 | 80 | 191 | 3.0 | 14.0 | 0.00 | 0.00 | 0.00 | 37 | 1013.0 |
| 20260503203203 | 80 | 179 | 3.0 | 14.0 | 0.00 | 0.00 | 0.00 | 38 | 1013.1 |
| 20260503202704 | 80 | 217 | 3.0 | 9.0 | 0.00 | 0.00 | 0.00 | 38 | 1013.2 |
| 20260503202204 | 79 | 203 | 5.0 | 12.0 | 0.00 | 0.00 | 0.00 | 39 | 1013.3 |
| 20260503201204 | 79 | 223 | 8.0 | 14.0 | 0.00 | 0.00 | 0.00 | 37 | 1013.5 |
| 20260503200704 | 79 | 221 | 3.0 | 9.0 | 0.00 | 0.00 | 0.00 | 40 | 1013.6 |
| 20260503200203 | 79 | 236 | 5.0 | 12.0 | 0.00 | 0.00 | 0.00 | 38 | 1013.7 |
| 20260503195703 | 79 | 251 | 4.0 | 8.0 | 0.00 | 0.00 | 0.00 | 40 | 1013.8 |
| 20260503195203 | 78 | 271 | 3.0 | 7.0 | 0.00 | 0.00 | 0.00 | 38 | 1013.9 |
| 20260503194703 | 79 | 183 | 6.0 | 12.0 | 0.00 | 0.00 | 0.00 | 39 | 1014.1 |
| 20260503194203 | 78 | 224 | 6.0 | 12.0 | 0.00 | 0.00 | 0.00 | 40 | 1014.1 |
| 20260503193204 | 79 | 233 | 3.0 | 12.0 | 0.00 | 0.00 | 0.00 | 39 | 1014.3 |
| 20260503192703 | 78 | 256 | 2.0 | 6.0 | 0.00 | 0.00 | 0.00 | 40 | 1014.4 |
| 20260503192203 | 78 | 233 | 5.0 | 12.0 | 0.00 | 0.00 | 0.00 | 39 | 1014.5 |
| 20260503185203 | 77 | 292 | 2.0 | 8.0 | 0.00 | 0.00 | 0.00 | 44 | 1014.8 |
| 20260503184704 | 76 | 265 | 3.0 | 7.0 | 0.00 | 0.00 | 0.00 | 42 | 1014.9 |
| 20260503184204 | 76 | 248 | 4.0 | 12.0 | 0.00 | 0.00 | 0.00 | 42 | 1015.1 |
| 20260503183703 | 76 | 123 | 3.0 | 12.0 | 0.00 | 0.00 | 0.00 | 44 | 1015.2 |
| 20260503182704 | 76 | 212 | 3.0 | 10.0 | 0.00 | 0.00 | 0.00 | 44 | 1015.4 |
| 20260503182203 | 75 | 208 | 3.0 | 7.0 | 0.00 | 0.00 | 0.00 | 45 | 1015.5 |
| 20260503181704 | 75 | 210 | 6.0 | 14.0 | 0.00 | 0.00 | 0.00 | 44 | 1015.6 |
| 20260503181204 | 75 | 208 | 5.0 | 12.0 | 0.00 | 0.00 | 0.00 | 44 | 1015.8 |
| 20260503180703 | 75 | 136 | 3.0 | 7.0 | 0.00 | 0.00 | 0.00 | 45 | 1015.8 |
| 20260503180204 | 75 | 261 | 4.0 | 7.0 | 0.00 | 0.00 | 0.00 | 45 | 1015.9 |
| 20260503175703 | 75 | 224 | 2.0 | 7.0 | 0.00 | 0.00 | 0.00 | 47 | 1016.0 |
| 20260503175204 | 74 | 236 | 3.0 | 8.0 | 0.00 | 0.00 | 0.00 | 46 | 1016.1 |
| 20260503174704 | 74 | 273 | 2.0 | 12.0 | 0.00 | 0.00 | 0.00 | 47 | 1016.1 |
| 20260503174204 | 74 | 227 | 5.0 | 12.0 | 0.00 | 0.00 | 0.00 | 47 | 1016.3 |
| 20260503173204 | 73 | 243 | 4.0 | 9.0 | 0.00 | 0.00 | 0.00 | 48 | 1016.5 |
| 20260503172703 | 73 | 221 | 5.0 | 14.0 | 0.00 | 0.00 | 0.00 | 48 | 1016.6 |
| 20260503172203 | 73 | 224 | 3.0 | 7.0 | 0.00 | 0.00 | 0.00 | 48 | 1016.7 |
| 20260503171204 | 72 | 216 | 5.0 | 12.0 | 0.00 | 0.00 | 0.00 | 50 | 1016.8 |
| 20260503170204 | 72 | 242 | 4.0 | 10.0 | 0.00 | 0.00 | 0.00 | 49 | 1016.9 |
| 20260503160204 | 66 | 219 | 4.0 | 10.0 | 0.00 | 0.00 | 0.00 | 53 | 1017.4 |
| 20260503150704 | 61 | 176 | 2.0 | 8.0 | 0.00 | 0.00 | 0.00 | 60 | 1018.2 |
| 20260503150204 | 60 | 207 | 4.0 | 7.0 | 0.00 | 0.00 | 0.00 | 60 | 1018.2 |
| 20260503131204 | 49 | 168 | 0.0 | 2.0 | 0.00 | 0.00 | 0.00 | 80 | 1019.1 |
| 20260503130703 | 49 | 162 | 0.0 | 6.0 | 0.00 | 0.00 | 0.00 | 81 | 1019.1 |
| 20260503130204 | 49 | 192 | 1.0 | 2.0 | 0.00 | 0.00 | 0.00 | 81 | 1019.1 |
| 20260503110703 | 40 | 86 | 0.0 | 0.0 | 0.00 | 0.00 | 0.00 | 91 | 1018.5 |
| 20260503110203 | 41 | 86 | 0.0 | 0.0 | 0.00 | 0.00 | 0.00 | 91 | 1018.5 |
| 20260503100204 | 41 | 103 | 0.0 | 0.0 | 0.00 | 0.00 | 0.00 | 90 | 1018.4 |